N273KA KIAH-KMYR

Flight info

Callsign N273KA
Flight time 1h 59m
Altitude 39000
Route MMUGS4 LCH Q24 PAYTN SHYRE ROHUN NOKIE CANTR FFORD
Aircraft FA50/M-SDFGHIM1RWXY/HB2

Departure

Time 2026-04-25 18:07
Airport George Bush Intercontinental Airport (KIAH)

Arrival

Time 2026-04-25 20:07
Airport Myrtle Beach International Airport (KMYR)
Time Latitude Longitude Altitude Speed Heading
2026-04-25 17:37 29.97154 -95.34279 95 ft 0 kts 60°
2026-04-25 17:58 29.97155 -95.34277 95 ft 0 kts 60°
2026-04-25 17:58 29.97163 -95.34265 95 ft 2 kts 34°
2026-04-25 17:58 29.97188 -95.34267 95 ft 4 kts 333°
2026-04-25 17:58 29.97211 -95.34282 95 ft 4 kts 332°
2026-04-25 17:59 29.97237 -95.34298 95 ft 4 kts 328°
2026-04-25 17:59 29.97259 -95.34329 95 ft 4 kts 288°
2026-04-25 17:59 29.97258 -95.34359 95 ft 6 kts 244°
2026-04-25 17:59 29.97227 -95.34424 95 ft 11 kts 243°
2026-04-25 18:00 29.97239 -95.34494 95 ft 9 kts 327°
2026-04-25 18:00 29.97308 -95.34537 95 ft 13 kts 332°
2026-04-25 18:00 29.97401 -95.34596 96 ft 17 kts 332°
2026-04-25 18:00 29.97517 -95.34666 96 ft 19 kts 333°
2026-04-25 18:01 29.97642 -95.34744 96 ft 20 kts 332°
2026-04-25 18:01 29.97744 -95.34805 96 ft 14 kts 332°
2026-04-25 18:01 29.97833 -95.34859 97 ft 15 kts 332°
2026-04-25 18:01 29.97936 -95.34924 97 ft 17 kts 332°
2026-04-25 18:02 29.98027 -95.34978 97 ft 12 kts 332°
2026-04-25 18:02 29.98111 -95.35030 97 ft 14 kts 332°
2026-04-25 18:02 29.98198 -95.35084 97 ft 13 kts 332°
2026-04-25 18:02 29.98280 -95.35136 97 ft 14 kts 330°
2026-04-25 18:03 29.98371 -95.35197 98 ft 15 kts 329°
2026-04-25 18:03 29.98462 -95.35252 98 ft 14 kts 333°
2026-04-25 18:03 29.98558 -95.35312 98 ft 17 kts 332°
2026-04-25 18:03 29.98668 -95.35379 98 ft 17 kts 333°
2026-04-25 18:04 29.98769 -95.35442 98 ft 14 kts 331°
2026-04-25 18:04 29.98853 -95.35493 98 ft 14 kts 332°
2026-04-25 18:04 29.98878 -95.35574 98 ft 12 kts 243°
2026-04-25 18:04 29.98839 -95.35654 98 ft 9 kts 241°
2026-04-25 18:05 29.98823 -95.35687 98 ft 0 kts 241°
2026-04-25 18:05 29.98817 -95.35700 98 ft 5 kts 242°
2026-04-25 18:06 29.98788 -95.35761 98 ft 8 kts 240°
2026-04-25 18:06 29.98742 -95.35759 98 ft 11 kts 151°
2026-04-25 18:06 29.98455 -95.35583 97 ft 83 kts 153°
2026-04-25 18:06 29.97763 -95.35163 144 ft 134 kts 155°
2026-04-25 18:07 29.96942 -95.34675 651 ft 134 kts 155°
2026-04-25 18:07 29.96166 -95.33979 1102 ft 158 kts 134°
2026-04-25 18:07 29.95438 -95.32939 1682 ft 179 kts 130°
2026-04-25 18:07 29.94673 -95.31802 2488 ft 189 kts 130°
2026-04-25 18:08 29.93818 -95.30579 3182 ft 206 kts 131°
2026-04-25 18:08 29.92885 -95.29304 4016 ft 218 kts 132°
2026-04-25 18:08 29.91864 -95.27928 4797 ft 235 kts 132°
2026-04-25 18:08 29.90775 -95.26466 5523 ft 254 kts 132°
2026-04-25 18:09 29.89586 -95.24861 6280 ft 273 kts 131°
2026-04-25 18:09 29.88399 -95.23137 7306 ft 280 kts 128°
2026-04-25 18:09 29.87253 -95.21318 8421 ft 285 kts 126°
2026-04-25 18:09 29.86884 -95.20725 8787 ft 287 kts 126°
2026-04-25 18:10 29.84943 -95.17600 10602 ft 297 kts 127°
2026-04-25 18:10 29.83709 -95.15604 11413 ft 313 kts 125°
2026-04-25 18:10 29.82752 -95.13387 12288 ft 324 kts 111°
2026-04-25 18:10 29.82272 -95.10789 13159 ft 335 kts 95°
2026-04-25 18:11 29.82140 -95.08148 14072 ft 341 kts 91°
2026-04-25 18:11 29.82037 -95.05405 14973 ft 346 kts 91°
2026-04-25 18:11 29.81930 -95.02606 15790 ft 353 kts 92°
2026-04-25 18:11 29.81915 -94.99789 16588 ft 359 kts 85°
2026-04-25 18:12 29.82232 -94.96925 17365 ft 364 kts 77°
2026-04-25 18:12 29.82873 -94.94132 18110 ft 368 kts 71°
2026-04-25 18:12 29.83624 -94.91274 18803 ft 375 kts 71°
2026-04-25 18:12 29.84383 -94.88390 19510 ft 379 kts 70°
2026-04-25 18:13 29.85146 -94.85485 20231 ft 383 kts 70°
2026-04-25 18:13 29.85915 -94.82554 20875 ft 388 kts 70°
2026-04-25 18:13 29.86700 -94.79556 21504 ft 393 kts 70°
2026-04-25 18:14 29.88294 -94.73510 22722 ft 401 kts 70°
2026-04-25 18:14 29.89107 -94.70437 23302 ft 405 kts 70°
2026-04-25 18:14 29.89932 -94.67314 23863 ft 409 kts 70°
2026-04-25 18:14 29.90764 -94.64159 24396 ft 414 kts 70°
2026-04-25 18:15 29.91593 -94.61015 24927 ft 417 kts 69°
2026-04-25 18:15 29.92443 -94.57783 25438 ft 421 kts 69°
2026-04-25 18:15 29.93288 -94.54566 25911 ft 425 kts 69°
2026-04-25 18:15 29.94143 -94.51312 26394 ft 428 kts 68°
2026-04-25 18:16 29.95012 -94.47996 26846 ft 432 kts 68°
2026-04-25 18:16 29.95873 -94.44710 27282 ft 435 kts 68°
2026-04-25 18:16 29.97631 -94.37985 28120 ft 442 kts 68°
2026-04-25 18:17 29.98509 -94.34590 28531 ft 446 kts 69°
2026-04-25 18:17 29.99282 -94.31119 28887 ft 451 kts 72°
2026-04-25 18:17 29.99909 -94.27549 29289 ft 455 kts 75°
2026-04-25 18:17 30.00391 -94.23932 29600 ft 460 kts 77°
2026-04-25 18:18 30.00835 -94.20277 29974 ft 462 kts 77°
2026-04-25 18:18 30.01282 -94.16585 30303 ft 465 kts 77°
2026-04-25 18:18 30.01730 -94.12878 30590 ft 469 kts 77°
2026-04-25 18:18 30.02178 -94.09158 30930 ft 471 kts 77°
2026-04-25 18:19 30.02627 -94.05418 31208 ft 474 kts 77°
2026-04-25 18:19 30.03075 -94.01672 31516 ft 476 kts 77°
2026-04-25 18:19 30.03530 -93.98000 31793 ft 479 kts 77°
2026-04-25 18:19 30.04001 -93.94237 32068 ft 482 kts 77°
2026-04-25 18:20 30.04481 -93.90382 32371 ft 483 kts 77°
2026-04-25 18:20 30.04951 -93.86602 32609 ft 487 kts 77°
2026-04-25 18:20 30.05432 -93.82715 32967 ft 487 kts 77°
2026-04-25 18:20 30.05911 -93.78843 33308 ft 487 kts 77°
2026-04-25 18:21 30.06383 -93.75016 33655 ft 487 kts 77°
2026-04-25 18:21 30.06855 -93.71175 33994 ft 487 kts 77°
2026-04-25 18:21 30.07331 -93.67288 34341 ft 487 kts 77°
2026-04-25 18:21 30.07801 -93.63447 34771 ft 485 kts 77°
2026-04-25 18:22 30.08267 -93.59614 35131 ft 484 kts 76°
2026-04-25 18:22 30.08425 -93.58315 35241 ft 484 kts 76°
2026-04-25 18:22 30.09200 -93.51936 35800 ft 484 kts 76°
2026-04-25 18:22 30.09665 -93.48088 36133 ft 484 kts 76°
2026-04-25 18:23 30.10128 -93.44254 36474 ft 483 kts 76°
2026-04-25 18:23 30.10592 -93.40402 36799 ft 483 kts 76°
2026-04-25 18:23 30.11049 -93.36600 37077 ft 484 kts 76°
2026-04-25 18:23 30.11513 -93.32729 37383 ft 484 kts 76°
2026-04-25 18:24 30.11967 -93.28929 37629 ft 485 kts 76°
2026-04-25 18:24 30.12426 -93.25081 37917 ft 485 kts 76°
2026-04-25 18:24 30.12889 -93.21182 38168 ft 485 kts 76°
2026-04-25 18:24 30.13346 -93.17333 38402 ft 486 kts 76°
2026-04-25 18:25 30.13842 -93.13509 38672 ft 484 kts 73°
2026-04-25 18:25 30.14422 -93.09701 38894 ft 484 kts 72°
2026-04-25 18:25 30.15088 -93.05893 38921 ft 486 kts 70°
2026-04-25 18:26 30.16561 -92.98338 38919 ft 490 kts 70°
2026-04-25 18:26 30.18058 -92.90659 38922 ft 494 kts 70°
2026-04-25 18:27 30.19566 -92.82920 38925 ft 497 kts 70°
2026-04-25 18:27 30.21087 -92.75097 38926 ft 500 kts 70°
2026-04-25 18:28 30.22604 -92.67273 38927 ft 503 kts 70°
2026-04-25 18:28 30.24133 -92.59361 38928 ft 506 kts 70°
2026-04-25 18:29 30.26430 -92.47426 38930 ft 509 kts 70°
2026-04-25 18:30 30.29489 -92.31434 38912 ft 512 kts 70°
2026-04-25 18:30 30.31009 -92.23444 38915 ft 512 kts 70°
2026-04-25 18:31 30.32533 -92.15403 38916 ft 513 kts 70°
2026-04-25 18:31 30.34055 -92.07352 38918 ft 513 kts 70°
2026-04-25 18:32 30.35567 -91.99320 38919 ft 513 kts 70°
2026-04-25 18:32 30.37084 -91.91232 38920 ft 513 kts 70°
2026-04-25 18:33 30.38590 -91.83177 38921 ft 513 kts 70°
2026-04-25 18:33 30.40086 -91.75143 38921 ft 514 kts 71°
2026-04-25 18:34 30.41583 -91.67078 38924 ft 514 kts 71°
2026-04-25 18:34 30.43081 -91.58980 38925 ft 514 kts 71°
2026-04-25 18:35 30.44566 -91.50917 38926 ft 514 kts 71°
2026-04-25 18:35 30.46051 -91.42831 38927 ft 514 kts 71°
2026-04-25 18:36 30.47526 -91.34763 38927 ft 514 kts 72°
2026-04-25 18:36 30.49021 -91.26699 38913 ft 512 kts 70°
2026-04-25 18:37 30.50831 -91.18758 38914 ft 508 kts 68°
2026-04-25 18:37 30.52698 -91.10909 38920 ft 507 kts 68°
2026-04-25 18:38 30.54542 -91.02988 38927 ft 507 kts 69°
2026-04-25 18:38 30.56340 -90.95164 38935 ft 506 kts 69°
2026-04-25 18:39 30.58134 -90.87299 38938 ft 505 kts 69°
2026-04-25 18:39 30.59919 -90.79436 38940 ft 505 kts 69°
2026-04-25 18:40 30.61696 -90.71581 38942 ft 504 kts 69°
2026-04-25 18:40 30.63462 -90.63747 38943 ft 504 kts 69°
2026-04-25 18:41 30.65234 -90.55858 38945 ft 504 kts 69°
2026-04-25 18:41 30.66984 -90.48047 38946 ft 503 kts 69°
2026-04-25 18:42 30.68158 -90.42790 38948 ft 503 kts 69°
2026-04-25 18:42 30.70491 -90.32317 38936 ft 503 kts 70°
2026-04-25 18:43 30.72223 -90.24512 38939 ft 502 kts 70°
2026-04-25 18:43 30.73871 -90.17062 38939 ft 501 kts 70°
2026-04-25 18:44 30.75598 -90.09235 38936 ft 500 kts 70°
2026-04-25 18:44 30.77313 -90.01436 38934 ft 500 kts 70°
2026-04-25 18:45 30.79026 -89.93626 38934 ft 499 kts 71°
2026-04-25 18:45 30.80722 -89.85864 38934 ft 498 kts 71°
2026-04-25 18:46 30.82420 -89.78068 38935 ft 498 kts 71°
2026-04-25 18:46 30.84109 -89.70291 38935 ft 497 kts 71°
2026-04-25 18:47 30.85794 -89.62507 38938 ft 497 kts 71°
2026-04-25 18:47 30.87477 -89.54710 38938 ft 497 kts 71°
2026-04-25 18:48 30.89154 -89.46915 38939 ft 497 kts 71°
2026-04-25 18:48 30.90815 -89.39173 38940 ft 497 kts 71°
2026-04-25 18:49 30.92488 -89.31344 38928 ft 497 kts 72°
2026-04-25 18:49 30.94143 -89.23584 38930 ft 496 kts 72°
2026-04-25 18:50 30.95796 -89.15803 38931 ft 496 kts 72°
2026-04-25 18:50 30.97446 -89.08012 38933 ft 495 kts 72°
2026-04-25 18:51 30.98530 -89.02881 38932 ft 495 kts 72°
2026-04-25 18:51 31.01202 -88.92740 38930 ft 490 kts 64°
2026-04-25 18:52 31.04112 -88.85602 38929 ft 486 kts 58°
2026-04-25 18:52 31.07210 -88.78622 38926 ft 487 kts 58°
2026-04-25 18:53 31.10204 -88.71875 38927 ft 487 kts 58°
2026-04-25 18:53 31.13404 -88.64656 38930 ft 487 kts 58°
2026-04-25 18:54 31.18064 -88.54118 38932 ft 488 kts 58°
2026-04-25 18:55 31.21164 -88.47094 38932 ft 488 kts 59°
2026-04-25 18:55 31.24248 -88.40091 38933 ft 489 kts 59°
2026-04-25 18:56 31.27348 -88.33038 38925 ft 489 kts 59°
2026-04-25 18:56 31.30438 -88.25993 38924 ft 489 kts 59°
2026-04-25 18:57 31.33534 -88.18926 38925 ft 489 kts 60°
2026-04-25 18:57 31.36624 -88.11855 38925 ft 489 kts 60°
2026-04-25 18:58 31.39712 -88.04775 38926 ft 489 kts 60°
2026-04-25 18:58 31.44312 -87.94204 38922 ft 489 kts 60°
2026-04-25 18:59 31.51318 -87.80684 38919 ft 488 kts 57°
2026-04-25 19:00 31.55366 -87.69702 38921 ft 492 kts 69°
2026-04-25 19:01 31.58696 -87.58350 38921 ft 493 kts 69°
2026-04-25 19:01 31.60917 -87.50768 38920 ft 493 kts 69°
2026-04-25 19:02 31.64258 -87.39352 38923 ft 494 kts 69°
2026-04-25 19:03 31.66837 -87.30517 38913 ft 494 kts 69°
2026-04-25 19:03 31.69798 -87.20345 38915 ft 494 kts 69°
2026-04-25 19:04 31.73106 -87.08938 38913 ft 494 kts 69°
2026-04-25 19:05 31.77508 -86.93694 38904 ft 494 kts 69°
2026-04-25 19:06 31.79708 -86.86045 38904 ft 495 kts 69°
2026-04-25 19:06 31.82988 -86.74608 38908 ft 495 kts 69°
2026-04-25 19:07 31.86278 -86.63089 38911 ft 496 kts 69°
2026-04-25 19:08 31.89546 -86.51601 38913 ft 497 kts 69°
2026-04-25 19:09 31.93551 -86.37464 38914 ft 498 kts 69°
2026-04-25 19:10 31.97181 -86.24590 38905 ft 498 kts 70°
2026-04-25 19:10 31.99350 -86.16872 38906 ft 499 kts 70°
2026-04-25 19:11 32.01520 -86.09130 38910 ft 499 kts 70°
2026-04-25 19:11 32.03678 -86.01411 38917 ft 499 kts 70°
2026-04-25 19:12 32.05838 -85.93663 38924 ft 499 kts 70°
2026-04-25 19:12 32.07985 -85.85938 38923 ft 499 kts 70°
2026-04-25 19:13 32.10141 -85.78163 38892 ft 500 kts 70°
2026-04-25 19:13 32.12211 -85.70678 38893 ft 500 kts 70°
2026-04-25 19:14 32.14429 -85.62637 38894 ft 501 kts 70°
2026-04-25 19:14 32.16575 -85.54839 38894 ft 501 kts 70°
2026-04-25 19:15 32.18711 -85.47052 38895 ft 501 kts 70°
2026-04-25 19:15 32.20853 -85.39222 38896 ft 501 kts 70°
2026-04-25 19:16 32.22983 -85.31416 38885 ft 501 kts 70°
2026-04-25 19:16 32.25173 -85.23688 38887 ft 501 kts 69°
2026-04-25 19:17 32.27386 -85.15929 38889 ft 500 kts 69°
2026-04-25 19:17 32.29593 -85.08141 38893 ft 500 kts 69°
2026-04-25 19:18 32.31779 -85.00399 38897 ft 500 kts 69°
2026-04-25 19:18 32.33968 -84.92624 38902 ft 499 kts 69°
2026-04-25 19:19 32.36144 -84.84871 38908 ft 499 kts 69°
2026-04-25 19:19 32.38321 -84.77091 38914 ft 498 kts 69°
2026-04-25 19:20 32.40482 -84.69349 38920 ft 498 kts 69°
2026-04-25 19:20 32.42631 -84.61631 38925 ft 497 kts 69°
2026-04-25 19:21 32.44798 -84.53829 38931 ft 497 kts 69°
2026-04-25 19:21 32.48002 -84.42254 38939 ft 496 kts 69°
2026-04-25 19:22 32.50133 -84.34529 38940 ft 496 kts 70°
2026-04-25 19:23 32.53331 -84.22894 38933 ft 495 kts 70°
2026-04-25 19:23 32.56494 -84.11334 38922 ft 494 kts 70°
2026-04-25 19:24 32.58602 -84.03603 38914 ft 494 kts 69°
2026-04-25 19:25 32.62792 -83.88178 38908 ft 492 kts 69°
2026-04-25 19:25 32.64872 -83.80489 38909 ft 492 kts 69°
2026-04-25 19:26 32.66951 -83.72783 38909 ft 491 kts 69°
2026-04-25 19:26 32.69018 -83.65102 38910 ft 491 kts 69°
2026-04-25 19:27 32.70793 -83.58701 38911 ft 491 kts 68°
2026-04-25 19:27 32.73331 -83.49799 38911 ft 491 kts 68°
2026-04-25 19:28 32.75502 -83.42133 38912 ft 491 kts 68°
2026-04-25 19:28 32.77658 -83.34482 38911 ft 491 kts 69°
2026-04-25 19:29 32.79798 -83.26858 38905 ft 490 kts 69°
2026-04-25 19:29 32.81935 -83.19231 38905 ft 490 kts 69°
2026-04-25 19:30 32.84083 -83.11533 38906 ft 489 kts 69°
2026-04-25 19:30 32.86200 -83.03928 38907 ft 489 kts 69°
2026-04-25 19:31 32.88327 -82.96267 38911 ft 488 kts 69°
2026-04-25 19:31 32.90444 -82.88618 38917 ft 488 kts 69°
2026-04-25 19:32 32.92555 -82.80972 38924 ft 488 kts 69°
2026-04-25 19:32 32.93966 -82.75851 38927 ft 487 kts 69°
2026-04-25 19:33 32.96756 -82.65698 38927 ft 487 kts 69°
2026-04-25 19:33 32.98853 -82.58042 38928 ft 487 kts 69°
2026-04-25 19:34 33.00951 -82.50358 38928 ft 487 kts 69°
2026-04-25 19:34 33.03033 -82.42716 38929 ft 487 kts 69°
2026-04-25 19:35 33.05102 -82.35099 38929 ft 487 kts 69°
2026-04-25 19:35 33.07187 -82.27407 38922 ft 486 kts 69°
2026-04-25 19:36 33.09226 -82.19862 38923 ft 486 kts 69°
2026-04-25 19:36 33.11260 -82.12321 38927 ft 486 kts 69°
2026-04-25 19:37 33.13310 -82.04723 38925 ft 486 kts 69°
2026-04-25 19:37 33.15358 -81.97059 38916 ft 486 kts 70°
2026-04-25 19:38 33.17395 -81.89426 38896 ft 486 kts 70°
2026-04-25 19:38 33.19429 -81.81789 38883 ft 486 kts 70°
2026-04-25 19:39 33.21444 -81.74206 38883 ft 485 kts 70°
2026-04-25 19:39 33.23412 -81.66780 38883 ft 485 kts 70°
2026-04-25 19:40 33.25395 -81.59278 38884 ft 485 kts 70°
2026-04-25 19:40 33.27396 -81.51686 38885 ft 484 kts 70°
2026-04-25 19:41 33.29407 -81.44038 38884 ft 484 kts 70°
2026-04-25 19:41 33.30742 -81.38947 38885 ft 484 kts 70°
2026-04-25 19:42 33.33315 -81.29108 38879 ft 484 kts 70°
2026-04-25 19:42 33.35312 -81.21448 38870 ft 483 kts 70°
2026-04-25 19:43 33.37203 -81.13818 38872 ft 483 kts 73°
2026-04-25 19:43 33.38769 -81.06015 38873 ft 484 kts 76°
2026-04-25 19:44 33.40158 -80.98154 38347 ft 489 kts 76°
2026-04-25 19:44 33.40861 -80.94162 37736 ft 490 kts 76°
2026-04-25 19:44 33.41559 -80.90178 37117 ft 490 kts 76°
2026-04-25 19:45 33.42250 -80.86220 36501 ft 489 kts 76°
2026-04-25 19:45 33.42933 -80.82295 35889 ft 489 kts 77°
2026-04-25 19:45 33.43628 -80.78291 35262 ft 489 kts 77°
2026-04-25 19:45 33.44311 -80.74344 34646 ft 488 kts 77°
2026-04-25 19:46 33.45000 -80.70359 34022 ft 488 kts 77°
2026-04-25 19:46 33.45676 -80.66437 33410 ft 488 kts 77°
2026-04-25 19:46 33.46366 -80.62421 32783 ft 488 kts 77°
2026-04-25 19:46 33.47047 -80.58451 32163 ft 488 kts 77°
2026-04-25 19:47 33.47720 -80.54524 31549 ft 487 kts 77°
2026-04-25 19:47 33.48396 -80.50571 30931 ft 487 kts 77°
2026-04-25 19:47 33.49075 -80.46588 30309 ft 487 kts 77°
2026-04-25 19:47 33.49748 -80.42633 29689 ft 486 kts 77°
2026-04-25 19:48 33.50418 -80.38689 29070 ft 483 kts 77°
2026-04-25 19:48 33.51045 -80.34988 28479 ft 477 kts 77°
2026-04-25 19:48 33.51702 -80.31102 27846 ft 471 kts 77°
2026-04-25 19:48 33.52346 -80.27287 27217 ft 465 kts 78°
2026-04-25 19:49 33.52983 -80.23502 26585 ft 459 kts 78°
2026-04-25 19:49 33.53191 -80.22269 26378 ft 458 kts 78°
2026-04-25 19:49 33.54225 -80.16109 25326 ft 443 kts 78°
2026-04-25 19:49 33.54818 -80.12566 24698 ft 431 kts 78°
2026-04-25 19:50 33.55972 -80.05664 23445 ft 418 kts 78°
2026-04-25 19:50 33.56542 -80.02249 22813 ft 412 kts 78°
2026-04-25 19:50 33.57096 -79.98920 22190 ft 407 kts 77°
2026-04-25 19:51 33.57645 -79.95617 21565 ft 402 kts 77°
2026-04-25 19:51 33.58182 -79.92376 20943 ft 398 kts 77°
2026-04-25 19:51 33.58715 -79.89156 20320 ft 393 kts 77°
2026-04-25 19:51 33.59245 -79.85947 19692 ft 389 kts 77°
2026-04-25 19:52 33.59766 -79.82791 19068 ft 386 kts 77°
2026-04-25 19:52 33.60255 -79.79658 18445 ft 382 kts 79°
2026-04-25 19:52 33.60599 -79.76535 17826 ft 380 kts 82°
2026-04-25 19:52 33.60869 -79.73393 17200 ft 377 kts 83°
2026-04-25 19:53 33.61110 -79.70304 16581 ft 374 kts 83°
2026-04-25 19:53 33.61366 -79.67193 15979 ft 370 kts 83°
2026-04-25 19:53 33.61626 -79.64160 15478 ft 364 kts 83°
2026-04-25 19:53 33.61886 -79.61201 14982 ft 358 kts 83°
2026-04-25 19:54 33.62147 -79.58260 14483 ft 353 kts 83°
2026-04-25 19:54 33.62407 -79.55368 13987 ft 349 kts 83°
2026-04-25 19:54 33.62667 -79.52490 13487 ft 345 kts 83°
2026-04-25 19:54 33.62756 -79.51511 13316 ft 344 kts 83°
2026-04-25 19:55 33.63179 -79.46835 12490 ft 338 kts 83°
2026-04-25 19:55 33.63431 -79.44049 11993 ft 335 kts 83°
2026-04-25 19:55 33.63756 -79.41309 11485 ft 332 kts 72°
2026-04-25 19:55 33.64896 -79.38957 11000 ft 325 kts 46°
2026-04-25 19:56 33.66488 -79.37110 10518 ft 317 kts 41°
2026-04-25 19:56 33.68100 -79.35351 10148 ft 307 kts 41°
2026-04-25 19:56 33.69587 -79.33733 9882 ft 296 kts 41°
2026-04-25 19:56 33.71096 -79.32095 9505 ft 290 kts 41°
2026-04-25 19:57 33.72590 -79.30480 9125 ft 288 kts 41°
2026-04-25 19:57 33.74088 -79.28866 8816 ft 288 kts 41°
2026-04-25 19:57 33.75565 -79.27275 8567 ft 287 kts 41°
2026-04-25 19:57 33.77050 -79.25676 8315 ft 285 kts 41°
2026-04-25 19:58 33.78508 -79.24107 8066 ft 284 kts 41°
2026-04-25 19:58 33.79985 -79.22518 7813 ft 282 kts 41°
2026-04-25 19:58 33.81422 -79.20975 7567 ft 281 kts 41°
2026-04-25 19:58 33.82888 -79.19404 7316 ft 281 kts 41°
2026-04-25 19:59 33.84353 -79.17832 7065 ft 279 kts 41°
2026-04-25 19:59 33.85765 -79.16316 6766 ft 272 kts 41°
2026-04-25 19:59 33.87165 -79.14812 6390 ft 268 kts 41°
2026-04-25 19:59 33.88555 -79.13320 6012 ft 265 kts 41°
2026-04-25 20:00 33.89834 -79.11780 5631 ft 263 kts 58°
2026-04-25 20:00 33.90113 -79.11130 5511 ft 262 kts 70°
2026-04-25 20:00 33.90667 -79.07600 4906 ft 256 kts 94°
2026-04-25 20:00 33.90454 -79.05489 4543 ft 253 kts 101°
2026-04-25 20:01 33.89871 -79.01363 3794 ft 249 kts 109°
2026-04-25 20:01 33.89161 -78.99506 3514 ft 241 kts 120°
2026-04-25 20:01 33.88269 -78.97865 3254 ft 232 kts 142°
2026-04-25 20:02 33.86852 -78.97164 3033 ft 218 kts 176°
2026-04-25 20:02 33.85350 -78.97043 2792 ft 214 kts 176°
2026-04-25 20:02 33.83888 -78.96790 2540 ft 211 kts 172°
2026-04-25 20:02 33.82472 -78.96458 2291 ft 208 kts 170°
2026-04-25 20:03 33.81060 -78.96106 2045 ft 205 kts 170°
2026-04-25 20:03 33.79693 -78.95763 1881 ft 196 kts 170°
2026-04-25 20:03 33.78434 -78.95447 1706 ft 176 kts 170°
2026-04-25 20:03 33.77335 -78.95169 1743 ft 143 kts 171°
2026-04-25 20:04 33.76450 -78.94938 1569 ft 121 kts 170°
2026-04-25 20:04 33.75669 -78.94714 1319 ft 111 kts 169°
2026-04-25 20:04 33.74899 -78.94521 1178 ft 113 kts 171°
2026-04-25 20:04 33.74139 -78.94335 1041 ft 112 kts 171°
2026-04-25 20:05 33.73367 -78.94144 922 ft 112 kts 170°
2026-04-25 20:05 33.72622 -78.93942 748 ft 109 kts 171°
2026-04-25 20:05 33.71884 -78.93784 607 ft 106 kts 172°
2026-04-25 20:05 33.71141 -78.93605 468 ft 107 kts 170°
2026-04-25 20:06 33.70414 -78.93423 298 ft 108 kts 170°
2026-04-25 20:06 33.69673 -78.93236 151 ft 109 kts 171°
2026-04-25 20:06 33.68962 -78.93073 22 ft 94 kts 171°
2026-04-25 20:06 33.68515 -78.92966 23 ft 50 kts 169°
2026-04-25 20:07 33.68250 -78.92902 23 ft 30 kts 168°
2026-04-25 20:07 33.68105 -78.92896 23 ft 15 kts 230°
2026-04-25 20:07 33.68054 -78.93024 23 ft 19 kts 247°
2026-04-25 20:07 33.68005 -78.93164 23 ft 15 kts 246°
2026-04-25 20:08 33.67929 -78.93186 23 ft 11 kts 168°
2026-04-25 20:08 33.67848 -78.93167 23 ft 11 kts 168°
2026-04-25 20:08 33.67762 -78.93145 23 ft 14 kts 169°
2026-04-25 20:08 33.67658 -78.93119 23 ft 15 kts 168°
2026-04-25 20:09 33.67572 -78.93098 23 ft 10 kts 169°
2026-04-25 20:09 33.67519 -78.93106 23 ft 8 kts 257°
2026-04-25 20:09 33.67505 -78.93175 23 ft 8 kts 257°
2026-04-25 20:09 33.67494 -78.93237 23 ft 8 kts 257°
2026-04-25 20:10 33.67482 -78.93300 23 ft 7 kts 256°
2026-04-25 20:10 33.67469 -78.93354 24 ft 6 kts 236°
2026-04-25 20:10 33.67445 -78.93349 24 ft 3 kts 154°
2026-04-25 20:10 33.67440 -78.93347 24 ft 0 kts 168°
2026-04-25 20:11 33.67434 -78.93346 25 ft 0 kts 167°